OBJECT E

基本信息
目录编号:
68420
目录名称:
OBJECT E
国际标识:
2026-067E
轨道中心:
EARTH
物体状态:
在轨
发射日期:
2026-03-30 UTC
国别:
(TBD)
轨道信息
数据来源: 国际轨道数据
星历时间: 2026-06-13T04:59:18+0800
半长轴: 6884.912km
偏心率: 0.0001
轨道倾角: 97.447°
近地点辐角: 99.902°
升交点赤经: 122.454°
平近点角: 260.233°
近地点: 506.086km
远地点: 507.464km
周期: 94.756分钟
每日圈数: 15.196907
详细信息
发射场:
AFWTR
轨道高度:
LEO
数据来源:
AOE Working Group
参考系:
TEME
时间系统:
UTC
历元类型:
SGP4
2D轨道图
3D轨道图
轨道高度分析图
轨道倾角分析图
轨道综合分析图
查看轨道综合分析图